Temperature
-1 -1 -2 -2 -3 -4 -4 -2 -1 -1 -2 -2 -3 -4 -5 -7 -7 -8 -8 -8 -8 -8 -8 -8 -8 -7 -7 -7 -7 -7 -7 -6 -6 -6 -6 -6 -5 -5 -5 -5 -5 -4 -4 -4
-3 -3 -3 -3 -3 -4 -4 -4 -3 -3 -3 -3 -5 -6 -7 -7 -8 -8 -8 -8 -9 -9 -8 -8 -8 -8 -8 -8 -8 -7 -7 -7 -7 -7 -6 -6 -6 -6 -6 -5 -5 -5 -5 -5
-1 -3 -3 -2 -3 -4 -5 -5 -5 -4 -3 -5 -6 -6 -7 -8 -8 -9 -9 -9 -9 -9 -9 -9 -9 -9 -9 -8 -8 -8 -8 -8 -8 -7 -7 -7 -7 -7 -6 -6 -6 -6 -5 -5
-2 -2 -2 -1 -6 -5 -5 -6 -6 -6 -6 -6 -7 -8 -8 -9 -9 -9 -9 -9 -9 -10 -10 -10 -9 -9 -9 -9 -9 -9 -8 -8 -8 -8 -8 -8 -7 -7 -7 -7 -6 -6 -6 -6
-2 -2 -1 -3 -6 -7 -6 -6 -7 -7 -7 -8 -9 -9 -8 -8 -9 -9 -9 -10 -10 -10 -10 -10 -10 -10 -10 -10 -9 -9 -9 -9 -9 -9 -8 -8 -8 -8 -8 -7 -7 -7 -7 -6
-3 -2 -1 -2 -6 -8 -6 -5 -7 -8 -8 -9 -9 -6 -6 -9 -9 -10 -10 -10 -10 -10 -11 -10 -10 -10 -10 -10 -10 -10 -10 -9 -9 -9 -9 -9 -9 -8 -8 -8 -7 -7 -7 -7
-4 -3 -2 -6 -9 -8 -5 -4 -8 -8 -9 -9 -9 -8 -9 -10 -10 -10 -11 -11 -11 -11 -11 -11 -11 -11 -11 -10 -10 -10 -10 -10 -10 -10 -10 -9 -9 -9 -9 -8 -8 -8 -8 -8
-5 -4 -3 -8 -9 -7 -6 -8 -8 -9 -9 -10 -10 -10 -10 -10 -11 -11 -11 -11 -11 -11 -11 -11 -11 -11 -11 -11 -11 -11 -10 -10 -10 -10 -10 -10 -10 -9 -9 -9 -9 -9 -8 -8
-6 -5 -7 -9 -9 -9 -9 -9 -9 -9 -10 -10 -10 -11 -11 -11 -11 -11 -12 -12 -12 -12 -12 -12 -12 -12 -11 -11 -11 -11 -11 -11 -11 -11 -10 -10 -10 -10 -10 -10 -9 -9 -9 -9
-8 -7 -9 -9 -9 -9 -9 -10 -10 -10 -10 -10 -11 -11 -11 -11 -12 -12 -12 -12 -12 -12 -12 -12 -12 -12 -12 -12 -12 -11 -11 -11 -11 -11 -11 -11 -11 -11 -11 -11 -10 -10 -10 -10
-8 -8 -9 -9 -9 -9 -10 -10 -10 -10 -11 -11 -11 -11 -12 -12 -12 -12 -12 -12 -13 -13 -13 -12 -12 -12 -12 -12 -12 -12 -12 -11 -11 -11 -11 -11 -11 -11 -11 -11 -11 -11 -11 -11
-7 -8 -9 -9 -9 -9 -10 -10 -10 -11 -11 -11 -11 -11 -12 -12 -12 -12 -13 -13 -13 -13 -13 -13 -13 -12 -12 -12 -12 -12 -12 -12 -12 -12 -12 -12 -12 -12 -12 -12 -12 -11 -11 -11
-9 -9 -10 -10 -10 -10 -10 -10 -11 -11 -11 -11 -11 -12 -12 -12 -12 -13 -13 -13 -13 -13 -13 -13 -13 -13 -13 -13 -13 -12 -12 -12 -12 -12 -12 -12 -12 -12 -12 -12 -12 -12 -12 -11
-10 -10 -10 -10 -10 -10 -11 -11 -11 -11 -11 -11 -12 -12 -12 -12 -13 -13 -13 -13 -13 -13 -13 -13 -13 -13 -13 -13 -13 -13 -13 -13 -13 -13 -13 -13 -13 -13 -13 -13 -12 -12 -12 -12
-10 -10 -11 -11 -11 -11 -11 -11 -11 -11 -11 -12 -12 -12 -12 -13 -13 -13 -13 -13 -13 -13 -13 -13 -13 -13 -13 -13 -13 -13 -13 -13 -13 -13 -13 -13 -13 -13 -13 -13 -13 -13 -13 -12
-11 -11 -11 -11 -11 -11 -11 -11 -11 -11 -12 -12 -12 -12 -12 -13 -13 -13 -13 -13 -13 -13 -13 -13 -13 -13 -13 -13 -13 -13 -13 -13 -14 -14 -14 -13 -13 -14 -14 -14 -14 -14 -13 -13
-11 -11 -11 -11 -11 -11 -11 -11 -12 -12 -12 -12 -12 -12 -13 -13 -13 -13 -13 -13 -13 -13 -13 -13 -13 -13 -13 -13 -13 -14 -14 -14 -14 -14 -14 -14 -14 -14 -14 -14 -14 -14 -14 -14
-11 -11 -11 -11 -11 -11 -11 -11 -12 -12 -12 -12 -12 -13 -13 -13 -13 -13 -13 -13 -13 -13 -13 -13 -13 -14 -14 -14 -14 -14 -14 -14 -14 -14 -14 -14 -14 -14 -14 -14 -14 -14 -14 -14
-11 -11 -11 -11 -11 -11 -11 -12 -12 -12 -12 -12 -13 -13 -13 -13 -13 -13 -13 -13 -13 -13 -13 -13 -14 -14 -14 -14 -14 -14 -14 -14 -14 -14 -14 -14 -14 -14 -15 -15 -15 -15 -15 -15
-11 -11 -11 -11 -11 -11 -12 -12 -12 -12 -12 -13 -13 -13 -13 -13 -13 -13 -13 -13 -14 -14 -14 -14 -14 -14 -14 -14 -14 -14 -14 -15 -15 -15 -15 -15 -15 -15 -15 -15 -15 -15 -15 -15
-11 -11 -11 -11 -11 -11 -12 -12 -12 -12 -12 -13 -13 -13 -13 -13 -14 -14 -14 -14 -14 -14 -14 -14 -14 -14 -14 -14 -15 -15 -15 -15 -15 -15 -15 -15 -15 -15 -15 -15 -15 -15 -15 -15
-11 -11 -11 -11 -12 -12 -12 -12 -12 -12 -13 -13 -13 -13 -13 -13 -14 -14 -14 -14 -14 -14 -14 -14 -14 -14 -15 -15 -15 -15 -15 -15 -15 -15 -15 -15 -15 -15 -15 -15 -15 -15 -15 -15
-11 -11 -12 -12 -12 -12 -12 -12 -13 -13 -13 -13 -13 -13 -13 -14 -14 -14 -14 -14 -14 -14 -14 -14 -14 -15 -15 -15 -15 -15 -15 -15 -15 -15 -15 -15 -15 -16 -16 -16 -16 -16 -16 -16
-11 -12 -12 -12 -12 -12 -12 -13 -13 -13 -13 -13 -13 -14 -14 -14 -14 -14 -14 -14 -14 -14 -14 -14 -15 -15 -15 -15 -15 -15 -15 -15 -15 -15 -15 -16 -16 -16 -16 -16 -16 -16 -16 -16
-12 -12 -12 -12 -13 -13 -13 -13 -13 -13 -13 -13 -13 -14 -14 -14 -14 -14 -14 -14 -14 -15 -15 -15 -15 -15 -15 -15 -15 -15 -15 -15 -15 -16 -16 -16 -16 -16 -16 -16 -16 -16 -16 -16
-12 -12 -12 -13 -13 -13 -13 -13 -13 -13 -14 -14 -14 -14 -14 -14 -14 -14 -14 -14 -15 -15 -15 -15 -15 -15 -15 -15 -15 -15 -15 -16 -16 -16 -16 -16 -16 -16 -16 -16 -16 -16 -16 -16
-13 -13 -13 -13 -13 -13 -13 -13 -14 -14 -14 -14 -14 -14 -14 -14 -14 -14 -15 -15 -15 -15 -15 -15 -15 -15 -16 -16 -16 -16 -16 -16 -16 -16 -16 -16 -16 -16 -16 -16 -16 -16 -16 -16
Wind_Speed
6 5 3 5 7 6 9 9 9 9 10 11 9 7 5 4 4 5 5 6 6 7 7 8 8 8 8 9 9 8 8 8 8 8 8 8 8 8 7 7 7 7 7 7
4 4 4 7 9 9 10 9 11 12 12 8 6 3 3 4 4 5 6 7 7 8 8 8 9 9 9 9 9 9 8 8 9 9 8 8 8 8 8 7 7 7 7 7
5 3 6 8 6 7 5 6 6 9 7 3 4 4 5 5 5 5 6 7 7 8 8 8 9 9 9 9 9 9 8 8 8 8 9 9 8 8 8 8 7 7 7 7
3 3 6 2 2 3 5 5 6 7 6 4 5 6 5 5 5 5 5 6 7 7 8 9 9 9 9 9 9 8 8 8 8 8 9 9 8 8 8 7 7 7 7 7
2 4 8 3 1 2 4 5 4 5 6 5 5 5 4 2 2 4 5 6 6 7 8 8 9 9 9 9 8 8 8 9 9 9 9 9 9 9 8 7 7 7 7 7
3 4 6 1 1 1 2 4 1 2 4 4 4 5 4 2 4 5 5 5 6 7 7 8 8 8 8 8 9 9 10 10 9 9 9 9 9 9 8 7 7 7 6 6
6 6 6 1 0 2 3 2 1 3 4 4 4 5 5 5 5 5 6 6 6 6 6 7 8 7 8 9 9 10 10 10 10 9 9 9 8 8 7 7 7 6 6 6
4 5 5 2 4 4 3 3 3 4 4 4 5 6 6 6 6 6 6 6 6 6 7 7 7 7 8 9 10 10 9 9 9 9 8 7 7 7 7 6 6 6 5 6
5 4 1 3 3 2 2 4 4 5 5 5 5 6 6 6 6 6 6 6 6 6 7 7 7 7 8 9 10 9 9 9 9 9 8 7 7 7 6 5 4 5 5 5
3 5 3 3 4 4 4 5 5 5 5 5 6 6 6 5 5 6 6 6 6 6 7 8 8 8 8 9 9 9 9 9 9 8 8 7 6 5 5 5 5 5 5 5
4 4 4 3 4 4 4 4 5 5 5 5 5 6 5 5 5 5 6 6 6 6 7 8 8 9 9 8 8 9 9 8 8 7 7 7 6 5 5 5 5 5 5 5
4 3 3 3 2 3 4 5 5 5 5 4 4 5 5 5 5 5 6 6 6 7 7 8 8 9 8 8 8 8 8 8 7 6 6 6 6 6 7 6 9 9 8 7
3 2 3 4 4 4 4 5 5 5 5 5 4 4 4 5 5 5 6 6 7 7 8 8 8 8 8 8 7 7 8 8 7 6 6 6 6 6 6 7 7 8 9 9
3 2 3 3 3 3 4 4 4 4 4 4 4 3 4 4 5 5 6 6 7 7 7 8 8 8 8 8 7 7 7 8 7 6 6 6 6 5 5 6 6 6 7 9
3 4 4 4 4 4 4 3 3 3 4 3 3 3 4 5 6 6 6 6 6 7 7 7 8 8 8 7 7 7 7 6 6 6 6 6 5 5 5 5 5 6 6 6
3 3 4 5 5 5 4 3 4 5 4 4 4 4 5 5 6 6 6 5 6 7 7 7 8 8 8 7 7 6 6 8 8 6 5 5 5 5 5 5 5 5 5 5
2 3 3 4 5 5 4 4 5 5 5 5 5 5 5 5 6 6 6 6 6 7 7 7 8 8 7 7 6 6 6 7 9 7 5 5 5 5 5 5 5 5 5 6
5 5 5 5 5 5 6 5 5 5 5 5 5 4 4 5 6 7 7 7 7 7 7 6 7 7 7 7 6 5 5 6 6 6 5 5 5 4 4 4 5 5 5 5
4 4 5 5 5 5 5 5 5 5 5 4 4 5 5 6 6 7 6 6 6 7 7 7 10 8 8 8 7 5 5 6 6 5 5 6 5 4 4 4 5 5 5 5
3 3 4 4 4 3 4 4 4 5 4 4 4 5 5 6 6 6 6 6 6 6 7 8 8 7 7 7 7 5 5 6 6 5 5 4 4 5 4 5 5 5 5 5
4 4 4 4 4 4 4 4 4 5 4 3 4 5 6 7 6 5 5 6 6 6 7 9 7 6 7 6 7 5 5 5 5 5 5 5 5 5 5 5 5 5 5 5
4 4 4 4 4 4 4 3 4 4 4 4 5 5 6 6 6 6 6 6 7 8 7 6 6 8 9 8 5 5 5 5 5 5 5 5 5 5 5 5 5 5 5 5
4 4 4 4 4 4 4 4 4 4 5 5 5 5 6 6 5 5 6 5 6 9 7 6 9 11 11 6 5 5 5 5 5 5 5 5 5 5 5 6 5 5 5 5
4 4 4 3 3 3 5 5 4 4 5 5 5 6 5 5 5 5 6 8 10 10 7 9 12 12 10 5 5 5 5 5 5 5 5 5 5 5 5 5 5 5 5 6
3 3 3 3 3 4 5 5 5 5 5 4 5 5 4 4 5 5 6 7 9 9 7 9 11 11 7 5 5 5 5 5 6 6 5 5 5 5 5 5 5 6 6 6
3 3 3 4 4 4 4 4 4 4 4 5 5 4 4 4 5 6 5 6 7 8 7 6 7 7 5 6 6 6 6 6 7 6 6 6 6 6 6 6 7 6 6 6
3 3 3 3 3 3 3 4 4 5 4 5 6 5 5 5 5 5 6 5 5 5 6 5 5 5 6 6 6 6 6 6 6 6 6 6 6 6 7 7 7 7 7 7
Wind_Direction
262 278 268 263 253 218 218 237 248 264 266 283 297 300 297 300 310 319 325 329 330 331 331 333 333 332 331 328 327 324 320 318 315 311 306 302 299 296 291 284 277 270 265 263
260 252 270 276 265 242 237 244 252 268 276 289 299 300 291 296 305 312 318 323 326 327 328 330 329 327 326 325 325 322 318 316 316 314 311 307 303 299 293 284 279 272 264 263
268 283 287 271 254 214 216 222 228 248 269 309 306 295 296 297 295 298 308 315 319 321 321 322 322 322 321 321 321 319 317 316 316 314 312 309 305 299 294 288 281 274 268 266
277 297 256 283 68 200 218 242 238 261 282 293 296 303 298 288 283 294 308 314 318 319 318 319 320 321 321 320 321 320 319 319 319 317 312 309 305 300 295 291 282 278 276 271
234 262 271 260 192 185 225 268 241 252 275 293 311 303 289 306 304 310 316 317 316 317 316 318 320 323 322 322 324 326 323 320 317 314 310 308 305 301 295 291 285 281 279 275
216 247 260 293 104 304 234 263 177 239 275 300 313 292 312 3 334 324 322 319 319 322 320 320 323 325 323 324 326 326 322 317 314 311 307 305 303 299 294 288 282 283 279 276
229 244 264 347 125 182 224 307 347 268 279 281 275 284 312 319 317 318 318 318 320 319 318 318 320 323 322 324 324 321 319 316 315 313 308 303 303 301 296 291 286 282 281 279
209 228 253 121 145 201 276 336 303 293 289 282 281 294 301 305 310 316 319 320 321 320 317 319 321 322 320 320 319 319 318 317 316 314 312 310 310 309 304 298 292 285 282 283
206 230 27 155 199 272 308 288 296 297 294 287 285 289 297 301 305 310 311 313 315 313 314 319 323 321 316 316 319 319 319 318 316 315 313 312 311 311 311 307 298 297 293 289
244 258 254 238 255 277 278 280 290 291 289 283 281 286 293 297 302 307 309 310 312 313 314 317 322 320 313 314 317 318 318 317 316 315 315 316 313 311 311 312 308 303 300 298
242 269 286 260 248 272 283 287 293 295 290 282 278 283 289 292 297 302 306 310 311 310 310 312 316 316 317 318 318 318 317 316 317 316 315 316 314 310 307 302 300 300 300 299
239 232 240 278 306 290 282 284 287 290 294 291 277 279 287 289 294 299 303 306 307 307 307 310 313 313 317 318 317 317 319 320 319 318 317 315 314 313 312 307 312 309 306 302
259 290 266 285 301 296 285 287 287 281 281 287 288 281 284 291 296 300 302 303 304 305 306 309 312 314 317 319 317 314 315 317 317 318 317 317 318 319 319 319 317 316 320 319
263 275 274 273 286 301 296 297 296 293 290 285 286 288 290 294 299 299 300 302 303 305 307 310 313 316 321 322 319 316 314 316 316 314 315 314 314 314 313 316 320 320 319 322
263 249 258 290 301 302 304 304 302 300 302 300 296 293 293 294 294 297 301 304 305 306 308 312 312 315 322 323 320 317 316 318 316 312 311 313 315 314 312 312 313 316 321 326
290 271 264 273 281 292 296 289 285 289 295 296 297 295 293 291 293 296 302 305 304 304 308 309 308 313 320 321 318 315 313 315 317 314 312 313 316 315 315 315 314 314 316 320
253 271 269 277 280 285 281 275 272 279 284 284 287 295 298 299 300 301 305 307 300 296 300 301 304 311 316 315 312 311 311 313 316 314 315 314 312 311 310 310 311 311 312 317
240 256 259 266 274 278 281 280 275 276 278 282 289 292 290 289 292 300 306 309 308 306 305 306 309 313 314 314 309 308 309 311 314 312 312 312 312 311 310 310 310 309 309 315
254 258 264 268 268 266 272 277 277 278 279 281 281 282 283 284 288 296 303 305 304 306 312 315 317 321 316 314 315 308 309 310 312 312 311 311 313 312 311 309 310 311 313 314
267 270 273 278 276 269 274 281 282 282 280 277 280 286 290 291 294 298 300 293 288 295 305 309 311 310 309 309 313 308 306 307 309 310 311 309 307 308 307 307 307 308 310 311
271 274 277 277 281 279 274 276 276 280 285 277 271 278 285 292 295 294 296 298 303 305 307 308 313 311 309 311 309 306 304 304 305 305 305 304 303 302 301 301 301 301 302 303
270 272 274 275 280 288 290 283 276 277 282 281 277 278 284 291 296 291 279 279 299 309 313 306 307 310 316 314 309 307 305 303 301 301 299 299 299 298 298 298 296 296 296 296
269 268 270 273 277 287 296 290 278 273 275 277 277 278 280 284 288 290 298 299 302 307 311 305 310 315 319 319 312 306 303 301 300 298 297 296 294 292 293 293 292 292 291 291
267 267 270 277 279 282 291 296 289 280 276 276 273 273 277 286 288 278 282 301 311 310 308 308 315 318 322 319 309 304 300 297 296 296 295 294 292 291 290 290 289 289 287 287
264 266 268 270 272 277 284 294 297 293 290 287 288 285 277 272 278 292 297 299 306 311 308 309 315 319 321 309 304 300 298 295 294 294 292 291 291 290 288 286 285 285 284 283
261 265 267 266 268 276 283 287 289 292 295 296 298 296 294 289 286 289 293 298 300 305 307 306 309 311 308 304 301 299 297 299 300 298 293 291 290 288 286 286 286 284 283 282
267 270 274 280 278 273 274 274 278 284 286 285 291 295 297 296 296 298 299 300 303 304 304 305 307 307 306 304 303 302 300 299 299 297 295 292 290 288 288 287 286 286 285 283
Height
1513 1513 1515 1514 1514 1517 1517 1510 1505 1498 1501 1498 1501 1502 1502 1501 1500 1499 1497 1495 1493 1491 1488 1486 1483 1480 1477 1475 1473 1470 1468 1466 1464 1463 1461 1459 1458 1457 1456 1455 1454 1454 1453 1453
1514 1513 1515 1513 1511 1512 1514 1512 1509 1506 1503 1501 1502 1501 1501 1500 1498 1497 1495 1493 1491 1489 1486 1483 1481 1478 1475 1472 1470 1467 1465 1463 1461 1459 1457 1455 1454 1452 1451 1450 1450 1449 1448 1447
1504 1511 1511 1502 1504 1509 1510 1510 1508 1503 1500 1501 1501 1500 1500 1498 1497 1495 1494 1492 1490 1487 1484 1482 1479 1475 1472 1469 1467 1464 1462 1459 1457 1455 1453 1451 1449 1448 1447 1446 1445 1444 1443 1442
1508 1510 1504 1499 1507 1506 1507 1507 1507 1504 1502 1501 1501 1499 1498 1496 1495 1493 1492 1490 1488 1485 1482 1479 1476 1473 1470 1467 1464 1461 1458 1456 1454 1451 1449 1447 1445 1443 1442 1441 1440 1439 1438 1437
1509 1504 1495 1500 1506 1508 1507 1503 1503 1503 1501 1501 1499 1497 1494 1494 1493 1492 1490 1488 1486 1483 1480 1477 1474 1470 1467 1464 1461 1458 1455 1453 1450 1448 1445 1443 1441 1439 1438 1436 1435 1434 1433 1432
1510 1503 1494 1496 1506 1507 1508 1499 1501 1501 1500 1499 1498 1494 1492 1492 1491 1489 1487 1485 1482 1480 1477 1474 1471 1468 1464 1461 1458 1455 1452 1449 1447 1444 1441 1439 1437 1435 1434 1432 1431 1429 1428 1428
1508 1503 1494 1505 1507 1507 1502 1496 1500 1499 1498 1498 1497 1495 1493 1490 1488 1487 1484 1482 1479 1477 1474 1471 1468 1465 1461 1458 1455 1452 1449 1446 1444 1441 1438 1436 1433 1432 1430 1428 1426 1425 1424 1423
1507 1503 1499 1506 1506 1505 1500 1500 1499 1498 1497 1495 1494 1492 1490 1488 1486 1483 1481 1479 1476 1474 1471 1468 1465 1462 1459 1455 1453 1450 1446 1443 1440 1438 1435 1432 1430 1428 1426 1424 1422 1421 1420 1419
1506 1502 1503 1503 1502 1501 1500 1499 1497 1496 1494 1493 1491 1489 1487 1485 1483 1481 1478 1476 1474 1471 1468 1465 1463 1460 1456 1453 1450 1447 1444 1441 1437 1435 1432 1429 1427 1424 1422 1420 1419 1417 1416 1415
1507 1501 1501 1501 1500 1499 1498 1497 1495 1494 1492 1490 1488 1486 1484 1482 1480 1478 1475 1473 1471 1468 1465 1462 1460 1457 1453 1450 1447 1444 1441 1438 1435 1432 1429 1426 1424 1421 1419 1417 1416 1414 1413 1412
1503 1500 1499 1497 1497 1496 1495 1493 1492 1490 1489 1487 1485 1483 1481 1479 1477 1475 1473 1470 1468 1465 1462 1459 1457 1454 1451 1448 1445 1442 1438 1435 1432 1430 1427 1424 1421 1419 1416 1415 1414 1412 1411 1409
1496 1497 1498 1496 1495 1494 1492 1491 1489 1487 1485 1484 1482 1480 1478 1476 1474 1472 1470 1467 1465 1462 1460 1457 1454 1451 1448 1445 1442 1439 1436 1433 1430 1427 1424 1422 1419 1417 1414 1413 1411 1409 1408 1407
1496 1495 1494 1493 1492 1491 1490 1488 1486 1485 1483 1481 1479 1478 1476 1474 1472 1469 1467 1465 1462 1460 1457 1454 1451 1448 1445 1442 1440 1437 1434 1431 1428 1425 1422 1420 1417 1414 1412 1410 1408 1407 1405 1404
1494 1493 1492 1491 1490 1489 1487 1485 1484 1482 1480 1478 1477 1475 1473 1471 1469 1467 1464 1462 1459 1457 1454 1451 1448 1445 1443 1440 1437 1434 1432 1429 1426 1423 1420 1418 1415 1412 1410 1408 1406 1404 1403 1401
1491 1491 1490 1488 1487 1486 1484 1483 1481 1479 1478 1476 1474 1472 1470 1468 1466 1464 1462 1459 1456 1454 1451 1448 1445 1443 1440 1437 1434 1432 1429 1426 1424 1421 1418 1416 1413 1411 1409 1406 1404 1402 1401 1399
1489 1488 1487 1486 1484 1483 1482 1480 1478 1477 1475 1473 1472 1470 1468 1466 1464 1461 1459 1456 1453 1451 1448 1445 1443 1440 1437 1435 1432 1429 1427 1424 1422 1419 1416 1414 1411 1409 1407 1405 1403 1401 1399 1397
1486 1485 1484 1483 1482 1480 1479 1478 1476 1474 1473 1471 1469 1467 1465 1463 1461 1458 1456 1454 1451 1448 1446 1443 1440 1438 1435 1432 1430 1427 1424 1422 1419 1417 1414 1412 1409 1407 1405 1403 1401 1399 1397 1396
1484 1483 1482 1481 1479 1478 1476 1475 1473 1472 1470 1468 1466 1465 1463 1460 1458 1456 1454 1451 1448 1446 1443 1440 1438 1435 1433 1430 1427 1425 1422 1420 1417 1414 1412 1409 1407 1405 1403 1401 1399 1397 1395 1394
1481 1480 1479 1478 1477 1475 1474 1472 1471 1469 1467 1466 1464 1462 1460 1458 1456 1453 1451 1448 1445 1442 1441 1438 1436 1433 1430 1428 1425 1423 1420 1417 1415 1412 1410 1407 1405 1403 1401 1399 1397 1395 1393 1392
1479 1478 1477 1476 1474 1473 1471 1470 1468 1466 1465 1463 1461 1459 1457 1455 1453 1451 1448 1445 1443 1440 1438 1436 1433 1430 1428 1426 1423 1420 1418 1415 1413 1410 1407 1405 1403 1401 1399 1397 1395 1393 1391 1390
1476 1475 1474 1473 1472 1470 1469 1467 1465 1463 1462 1460 1458 1456 1454 1453 1451 1448 1445 1442 1441 1438 1435 1433 1431 1428 1426 1423 1421 1418 1416 1413 1410 1408 1405 1403 1400 1398 1396 1394 1392 1391 1389 1387
1474 1472 1471 1470 1469 1467 1466 1464 1463 1461 1459 1457 1456 1454 1452 1450 1447 1445 1443 1440 1438 1435 1433 1430 1428 1426 1423 1421 1418 1415 1413 1410 1408 1405 1402 1400 1398 1396 1394 1392 1390 1388 1386 1385
1471 1470 1468 1467 1466 1464 1463 1461 1460 1458 1456 1455 1453 1451 1449 1447 1444 1442 1439 1437 1435 1432 1430 1427 1425 1423 1420 1418 1415 1412 1410 1407 1404 1402 1400 1397 1395 1393 1391 1389 1387 1385 1383 1382
1467 1466 1465 1464 1463 1461 1460 1458 1457 1455 1454 1452 1450 1448 1446 1443 1441 1439 1437 1434 1432 1429 1426 1424 1422 1419 1417 1414 1411 1409 1406 1404 1401 1399 1396 1394 1392 1390 1388 1386 1384 1382 1380 1378
1464 1463 1462 1461 1459 1458 1457 1455 1454 1452 1450 1449 1447 1445 1443 1441 1438 1436 1433 1431 1428 1425 1423 1420 1418 1415 1413 1410 1408 1405 1403 1400 1398 1395 1393 1391 1388 1386 1384 1382 1380 1378 1376 1375
1461 1460 1459 1457 1456 1455 1454 1452 1450 1449 1447 1445 1443 1442 1439 1437 1435 1432 1430 1427 1425 1422 1419 1417 1414 1412 1409 1406 1404 1401 1399 1397 1394 1392 1389 1387 1384 1382 1380 1378 1376 1374 1373 1371
1457 1456 1455 1454 1453 1452 1450 1449 1447 1445 1443 1441 1439 1438 1436 1433 1431 1429 1426 1424 1421 1419 1416 1413 1411 1408 1405 1403 1400 1398 1395 1393 1390 1388 1385 1383 1381 1378 1376 1374 1372 1370 1368 1367